Weather History for KABR - July, 2013

Change the Weather History Date:

Sunday, July 28, 2013

  Actual Average Record
Temperature  
Mean Temperature 57 °F 72 °F  
Max Temperature 74 °F 84 °F 109 °F (1975)
Min Temperature 40 °F 59 °F 40 °F (2013)
Degree Days  
Heating Degree Days 8 0  
Month to date heating degree days 24 8  
Since 1 June heating degree days 105 84  
Since 1 July heating degree days 24 8  
Cooling Degree Days 0 7  
Month to date cooling degree days 192 187  
Year to date cooling degree days 309 302  
Since 1 June cooling degree days 288 279  
Growing Degree Days 6 (Base 50)    
Moisture  
Dew Point 45 °F    
Average Humidity 67    
Maximum Humidity 96    
Minimum Humidity 38    
Precipitation  
Precipitation 0.00 in 0.09 in 1.35 in (1955)
Month to date precipitation 2.37 2.77  
Year to date precipitation 13.09 13.61  
Sea Level Pressure  
Sea Level Pressure 30.05 in    
Wind  
Wind Speed 4 mph (SE)    
Max Wind Speed 12 mph    
Max Gust Speed 17 mph    
Visibility 10 miles    
Events      
T = Trace of Precipitation, MM = Missing Value Source: NWS Daily Summary

Daily Weather History Graph

Daily Weather History Graph

Search for Another Location

Airport or City:

Trip Planner

Search our weather history database for the weather conditions in past years. The results will help you decide how hot, cold, wet, or windy it might be!

Date:

Astronomy

Jul. 28, 2013 Rise Set
Actual Time 6:13 AM CDT 9:06 PM CDT
Civil Twilight 5:38 AM CDT 9:40 PM CDT
Nautical Twilight 4:54 AM CDT 10:24 PM CDT
Astronomical Twilight 4:02 AM CDT 11:16 PM CDT
Moon No Moon Rise 1:20 PM CDT
Length of Visible Light 16h 01m
Length of Day
14h 52m
Waning Gibbous, 60% of the Moon is Illuminated
Jul 28
Waning Gibbous
Jul 29
Last Quarter
Aug 6
New
Aug 14
First Quarter
Aug 20
Full

Hourly Weather History & Observations

Time (CDT) Temp. Windchill Dew Point Humidity Pressure Visibility Wind Dir Wind Speed Gust Speed Precip Events Conditions
12:53 AM 48.9 °F - 44.1 °F 83% 30.08 in 10.0 mi Calm Calm - N/A   Clear
1:53 AM 44.1 °F - 42.1 °F 93% 30.08 in 10.0 mi Calm Calm - N/A   Clear
2:53 AM 42.1 °F - 39.9 °F 92% 30.08 in 10.0 mi Calm Calm - N/A   Clear
3:53 AM 44.1 °F - 42.1 °F 93% 30.07 in 10.0 mi Calm Calm - N/A   Clear
4:53 AM 41.0 °F - 39.0 °F 93% 30.07 in 10.0 mi Calm Calm - N/A   Clear
5:53 AM 43.0 °F - 41.0 °F 93% 30.07 in 10.0 mi Calm Calm - N/A   Clear
6:53 AM 45.0 °F 43.5 °F 41.0 °F 86% 30.07 in 10.0 mi North 3.5 mph - N/A   Clear
7:53 AM 51.1 °F - 44.1 °F 77% 30.08 in 10.0 mi Calm Calm - N/A   Clear
8:53 AM 57.9 °F - 46.9 °F 67% 30.08 in 10.0 mi Calm Calm - N/A   Clear
9:53 AM 63.0 °F - 46.9 °F 56% 30.08 in 10.0 mi South 3.5 mph - N/A   Clear
10:53 AM 66.0 °F - 46.0 °F 48% 30.08 in 10.0 mi South 3.5 mph - N/A   Clear
11:53 AM 66.9 °F - 43.0 °F 42% 30.07 in 10.0 mi SSE 5.8 mph - N/A   Clear
12:53 PM 69.1 °F - 45.0 °F 42% 30.06 in 10.0 mi SSE 9.2 mph - N/A   Clear
1:53 PM 70.0 °F - 46.0 °F 42% 30.06 in 10.0 mi South 5.8 mph 17.3 mph N/A   Partly Cloudy
2:53 PM 71.1 °F - 45.0 °F 39% 30.05 in 10.0 mi South 8.1 mph - N/A   Clear
3:53 PM 73.0 °F - 46.0 °F 38% 30.03 in 10.0 mi SE 5.8 mph - N/A   Clear
4:53 PM 72.0 °F - 46.0 °F 40% 30.03 in 10.0 mi SSE 8.1 mph - N/A   Clear
5:53 PM 72.0 °F - 48.0 °F 43% 30.02 in 10.0 mi SSE 6.9 mph - N/A   Clear
6:53 PM 72.0 °F - 46.9 °F 41% 30.01 in 10.0 mi SSE 3.5 mph - N/A   Clear
7:53 PM 70.0 °F - 46.9 °F 44% 30.01 in 10.0 mi East 6.9 mph - N/A   Clear
8:53 PM 61.0 °F - 51.1 °F 70% 30.02 in 10.0 mi ESE 3.5 mph - N/A   Clear
9:53 PM 55.0 °F - 48.0 °F 77% 30.03 in 10.0 mi ESE 5.8 mph - N/A   Clear
10:53 PM 52.0 °F - 46.9 °F 83% 30.04 in 10.0 mi ESE 5.8 mph - N/A   Clear
11:53 PM 52.0 °F - 46.9 °F 83% 30.04 in 10.0 mi ESE 6.9 mph - N/A   Clear